| time (UTC) | temp F | wind direction | speed MPH | gust MPH | rain 1hr in | rain 24hr in | rain mn in | humidity % | barometer mb |
| 20260901174535 | 61 | 297 | 1.0 | 4.0 | 0.00 | 0.13 | 0.00 | 69 | 1012.2 |
| 20260901173032 | 59 | 244 | 0.0 | 3.0 | 0.00 | 0.13 | 0.00 | 72 | 1012.0 |
| 20260901171544 | 58 | 227 | 0.0 | 2.0 | 0.00 | 0.13 | 0.00 | 75 | 1011.9 |
| 20260901170040 | 57 | 143 | 0.0 | 5.0 | 0.00 | 0.13 | 0.00 | 75 | 1011.9 |
| 20260901164520 | 56 | 158 | 1.0 | 3.0 | 0.00 | 0.13 | 0.00 | 76 | 1011.8 |
| 20260901163020 | 56 | 203 | 0.0 | 1.0 | 0.00 | 0.13 | 0.00 | 79 | 1011.5 |
| 20260901161514 | 55 | 203 | 1.0 | 3.0 | 0.00 | 0.13 | 0.00 | 79 | 1011.5 |
| 20260901160013 | 54 | 145 | 0.0 | 2.0 | 0.00 | 0.13 | 0.00 | 80 | 1011.3 |
| 20260901154509 | 54 | 195 | 0.0 | 5.0 | 0.00 | 0.13 | 0.00 | 82 | 1011.1 |
| 20260901153009 | 53 | 123 | 0.0 | 3.0 | 0.00 | 0.13 | 0.00 | 83 | 1011.1 |
| 20260901151508 | 53 | 233 | 0.0 | 1.0 | 0.00 | 0.13 | 0.00 | 87 | 1010.9 |
| 20260901150008 | 53 | 215 | 0.0 | 3.0 | 0.00 | 0.13 | 0.00 | 87 | 1010.8 |
| 20260901144502 | 52 | 243 | 0.0 | 2.0 | 0.00 | 0.13 | 0.00 | 87 | 1010.3 |
| 20260901143108 | 52 | 205 | 0.0 | 3.0 | 0.00 | 0.13 | 0.00 | 88 | 1010.1 |
| 20260901141607 | 52 | 209 | 0.0 | 3.0 | 0.00 | 0.13 | 0.00 | 88 | 1010.1 |
| 20260901140058 | 52 | 221 | 0.0 | 3.0 | 0.00 | 0.13 | 0.00 | 89 | 1009.9 |
| 20260901134552 | 52 | 86 | 0.0 | 1.0 | 0.00 | 0.13 | 0.00 | 89 | 1009.7 |
| 20260901133151 | 52 | 213 | 0.0 | 0.0 | 0.00 | 0.13 | 0.00 | 90 | 1009.9 |
| 20260901131555 | 52 | 178 | 0.0 | 2.0 | 0.00 | 0.13 | 0.00 | 91 | 1009.7 |
| 20260901130042 | 52 | 233 | 0.0 | 1.0 | 0.00 | 0.13 | 0.00 | 91 | 1009.8 |
| 20260901124644 | 52 | 172 | 0.0 | 1.0 | 0.00 | 0.13 | 0.00 | 91 | 1010.0 |
| 20260901123040 | 51 | 201 | 0.0 | 0.0 | 0.00 | 0.13 | 0.00 | 91 | 1009.9 |
| 20260901121638 | 51 | 202 | 0.0 | 1.0 | 0.00 | 0.13 | 0.00 | 91 | 1009.5 |
| 20260901120104 | 51 | 162 | 0.0 | 0.0 | 0.00 | 0.13 | 0.00 | 92 | 1009.2 |
| 20260901114650 | 50 | 104 | 0.0 | 0.0 | 0.00 | 0.13 | 0.00 | 92 | 1009.0 |
| 20260901113058 | 49 | 104 | 0.0 | 0.0 | 0.00 | 0.13 | 0.00 | 91 | 1009.0 |
| 20260901111504 | 48 | 184 | 0.0 | 1.0 | 0.00 | 0.13 | 0.00 | 90 | 1008.8 |
| 20260901110055 | 49 | 212 | 0.0 | 0.0 | 0.00 | 0.13 | 0.00 | 90 | 1008.6 |
| 20260901104653 | 49 | 212 | 0.0 | 0.0 | 0.00 | 0.13 | 0.00 | 90 | 1008.5 |
| 20260901103136 | 49 | 212 | 0.0 | 0.0 | 0.00 | 0.13 | 0.00 | 89 | 1008.3 |
| 20260901101607 | 50 | 212 | 0.0 | 0.0 | 0.00 | 0.13 | 0.00 | 89 | 1008.3 |
| 20260901100055 | 50 | 212 | 0.0 | 0.0 | 0.00 | 0.13 | 0.00 | 89 | 1008.6 |
| 20260901094646 | 51 | 212 | 0.0 | 0.0 | 0.00 | 0.13 | 0.00 | 89 | 1008.6 |
| 20260901093049 | 51 | 212 | 0.0 | 0.0 | 0.00 | 0.13 | 0.00 | 89 | 1008.6 |
| 20260901091645 | 51 | 212 | 0.0 | 0.0 | 0.00 | 0.13 | 0.00 | 89 | 1008.8 |
| 20260901090100 | 51 | 212 | 0.0 | 0.0 | 0.00 | 0.13 | 0.00 | 88 | 1008.7 |
| 20260901084547 | 52 | 212 | 0.0 | 0.0 | 0.00 | 0.13 | 0.00 | 88 | 1008.8 |
| 20260901083143 | 52 | 212 | 0.0 | 0.0 | 0.00 | 0.13 | 0.00 | 88 | 1008.8 |
| 20260901081546 | 52 | 212 | 0.0 | 1.0 | 0.00 | 0.13 | 0.00 | 87 | 1008.9 |
| 20260901080103 | 52 | 139 | 0.0 | 0.0 | 0.00 | 0.13 | 0.00 | 87 | 1009.0 |
| 20260901074638 | 52 | 183 | 0.0 | 0.0 | 0.00 | 0.13 | 0.00 | 86 | 1009.0 |
| 20260901073052 | 53 | 183 | 0.0 | 0.0 | 0.00 | 0.13 | 0.00 | 85 | 1009.0 |
| 20260901071650 | 53 | 182 | 0.0 | 0.0 | 0.00 | 0.13 | 0.00 | 84 | 1008.9 |
| 20260901070057 | 54 | 167 | 0.0 | 1.0 | 0.00 | 0.13 | 0.00 | 83 | 1008.7 |
| 20260901064508 | 54 | 248 | 0.0 | 0.0 | 0.00 | 0.13 | 0.13 | 82 | 1008.5 |
| 20260901063104 | 55 | 248 | 0.0 | 0.0 | 0.00 | 0.13 | 0.13 | 81 | 1008.5 |
| 20260901061549 | 55 | 248 | 0.0 | 0.0 | 0.00 | 0.13 | 0.13 | 81 | 1008.3 |
| 20260901060039 | 55 | 248 | 0.0 | 0.0 | 0.00 | 0.13 | 0.13 | 80 | 1008.3 |
| 20260901054531 | 56 | 248 | 0.0 | 0.0 | 0.00 | 0.13 | 0.13 | 79 | 1008.3 |
| 20260901053141 | 57 | 248 | 0.0 | 0.0 | 0.00 | 0.13 | 0.13 | 78 | 1008.3 |
| 20260901051541 | 57 | 248 | 0.0 | 0.0 | 0.00 | 0.13 | 0.13 | 77 | 1008.3 |
| 20260901050010 | 58 | 248 | 0.0 | 0.0 | 0.00 | 0.13 | 0.13 | 75 | 1008.3 |
| 20260901044606 | 59 | 248 | 0.0 | 0.0 | 0.00 | 0.13 | 0.13 | 74 | 1008.3 |
| 20260901043150 | 59 | 248 | 0.0 | 1.0 | 0.00 | 0.13 | 0.13 | 72 | 1008.1 |
| 20260901041621 | 60 | 255 | 0.0 | 0.0 | 0.00 | 0.13 | 0.13 | 70 | 1008.1 |
| 20260901040157 | 61 | 255 | 0.0 | 1.0 | 0.00 | 0.13 | 0.13 | 68 | 1007.8 |
| 20260901034552 | 62 | 255 | 0.0 | 1.0 | 0.00 | 0.13 | 0.13 | 66 | 1007.6 |
| 20260901033036 | 63 | 268 | 0.0 | 1.0 | 0.00 | 0.13 | 0.13 | 64 | 1007.4 |
| 20260901031537 | 65 | 269 | 0.0 | 1.0 | 0.00 | 0.13 | 0.13 | 62 | 1007.2 |
| 20260901030140 | 66 | 217 | 0.0 | 1.0 | 0.00 | 0.13 | 0.13 | 60 | 1007.1 |
| 20260901024558 | 68 | 194 | 0.0 | 1.0 | 0.00 | 0.14 | 0.13 | 56 | 1006.8 |
| 20260901023043 | 69 | 245 | 0.0 | 1.0 | 0.00 | 0.14 | 0.13 | 53 | 1006.7 |
| 20260901021543 | 71 | 184 | 0.0 | 1.0 | 0.00 | 0.14 | 0.13 | 50 | 1006.6 |
| 20260901020036 | 72 | 227 | 0.0 | 1.0 | 0.00 | 0.14 | 0.13 | 47 | 1006.5 |
| 20260901014638 | 73 | 287 | 0.0 | 1.0 | 0.00 | 0.14 | 0.13 | 45 | 1006.4 |
| 20260901013057 | 74 | 243 | 0.0 | 2.0 | 0.00 | 0.14 | 0.13 | 42 | 1006.5 |
| 20260901011654 | 75 | 223 | 0.0 | 2.0 | 0.00 | 0.14 | 0.13 | 41 | 1006.5 |
| 20260901010053 | 75 | 210 | 0.0 | 3.0 | 0.00 | 0.14 | 0.13 | 41 | 1006.6 |
| 20260901004643 | 75 | 197 | 0.0 | 3.0 | 0.01 | 0.16 | 0.13 | 40 | 1006.5 |
| 20260901003041 | 76 | 185 | 0.0 | 3.0 | 0.02 | 0.16 | 0.13 | 39 | 1006.6 |
| 20260901001648 | 77 | 211 | 0.0 | 4.0 | 0.04 | 0.16 | 0.13 | 38 | 1006.6 |
| 20260901000041 | 77 | 283 | 0.0 | 3.0 | 0.04 | 0.16 | 0.13 | 37 | 1006.6 |
| 20260831234647 | 77 | 293 | 0.0 | 2.0 | 0.04 | 0.16 | 0.12 | 37 | 1006.5 |
| 20260831233104 | 78 | 79 | 0.0 | 4.0 | 0.04 | 0.15 | 0.11 | 36 | 1006.7 |
| 20260831231651 | 78 | 117 | 0.0 | 3.0 | 0.02 | 0.13 | 0.09 | 37 | 1006.8 |
| 20260831230109 | 79 | 326 | 1.0 | 3.0 | 0.02 | 0.13 | 0.09 | 34 | 1006.9 |
| 20260831224553 | 79 | 264 | 1.0 | 5.0 | 0.01 | 0.16 | 0.08 | 34 | 1007.0 |
| 20260831223005 | 80 | 243 | 1.0 | 3.0 | 0.00 | 0.15 | 0.07 | 32 | 1006.9 |
| 20260831221608 | 79 | 136 | 1.0 | 4.0 | 0.00 | 0.15 | 0.07 | 34 | 1007.0 |
| 20260831220050 | 80 | 289 | 2.0 | 4.0 | 0.00 | 0.15 | 0.07 | 34 | 1007.1 |
| 20260831214545 | 79 | 179 | 1.0 | 4.0 | 0.01 | 0.16 | 0.07 | 36 | 1007.3 |
| 20260831213001 | 79 | 310 | 1.0 | 4.0 | 0.01 | 0.16 | 0.07 | 36 | 1007.4 |
| 20260831211548 | 79 | 205 | 0.0 | 4.0 | 0.01 | 0.16 | 0.07 | 37 | 1007.5 |
| 20260831204608 | 78 | 318 | 1.0 | 4.0 | 0.01 | 0.16 | 0.06 | 39 | 1007.4 |
| 20260831203110 | 80 | 190 | 1.0 | 4.0 | 0.03 | 0.16 | 0.06 | 37 | 1007.5 |
| 20260831201557 | 80 | 200 | 1.0 | 6.0 | 0.03 | 0.16 | 0.06 | 37 | 1007.5 |
| 20260831200105 | 80 | 248 | 1.0 | 5.0 | 0.03 | 0.15 | 0.05 | 35 | 1007.5 |
| 20260831194635 | 83 | 140 | 1.0 | 4.0 | 0.03 | 0.17 | 0.05 | 33 | 1007.6 |
| 20260831193059 | 83 | 118 | 0.0 | 4.0 | 0.01 | 0.15 | 0.03 | 33 | 1007.6 |
| 20260831191550 | 81 | 192 | 0.0 | 3.0 | 0.03 | 0.15 | 0.03 | 37 | 1007.7 |
| 20260831190057 | 81 | 158 | 1.0 | 5.0 | 0.02 | 0.14 | 0.02 | 34 | 1007.6 |
| 20260831184549 | 81 | 257 | 2.0 | 4.0 | 0.02 | 0.16 | 0.02 | 32 | 1007.4 |
| 20260831183055 | 82 | 300 | 0.0 | 4.0 | 0.02 | 0.16 | 0.02 | 34 | 1007.4 |
| 20260831181548 | 80 | 129 | 2.0 | 3.0 | 0.00 | 0.14 | 0.00 | 34 | 1007.4 |
| 20260831180048 | 79 | 286 | 1.0 | 2.0 | 0.00 | 0.14 | 0.00 | 38 | 1007.5 |